Lid_Strength_Index
2 2 3 3 3 2 3 2 2 2 2 2 2 2 2 2 2 2 4 2 1 -2 -0 1 2 4 4 5 4 5 6 7 7 7 6 4 5 3 3 5 4 3 3 2 1
2 2 3 3 3 3 3 3 2 2 2 2 2 2 2 2 2 2 -0 -1 -2 -3 2 3 4 3 5 5 5 6 6 6 5 4 5 4 4 4 4 4 4 4 2 1 1
2 3 3 3 3 3 4 3 2 2 2 2 2 2 2 2 3 3 -2 -2 -1 -2 1 2 3 3 4 4 5 5 6 5 4 4 4 4 4 3 4 5 4 4 3 2 2
3 3 3 3 3 3 3 3 3 3 2 2 2 2 2 0 6 1 -3 -3 -3 0 2 3 3 4 4 5 3 5 4 4 4 4 4 5 4 4 4 4 2 3 2 2 2
3 3 4 4 4 4 3 3 3 3 3 3 2 2 1 3 3 -1 -3 -2 1 1 3 3 4 4 5 4 4 5 5 4 4 4 4 4 4 5 4 3 2 3 2 2 2
3 3 4 4 4 4 4 4 4 3 2 3 2 2 2 5 -0 -1 1 2 2 2 3 3 3 3 4 4 5 4 4 4 4 4 4 5 5 4 4 2 3 4 2 2 2
3 4 4 4 4 4 4 4 4 3 2 2 2 1 2 3 -0 0 0 2 1 2 3 2 2 3 3 4 3 4 5 5 5 4 5 4 6 6 3 3 3 3 3 2 2
4 4 4 4 4 4 4 4 4 2 2 2 1 0 3 -0 -1 1 1 2 1 1 2 2 2 3 3 3 4 5 5 7 5 4 4 5 8 4 3 3 4 3 3 2 2
4 4 4 4 4 4 4 4 3 1 1 1 1 2 4 1 1 0 2 3 2 2 2 2 2 3 3 5 6 6 8 7 7 4 5 5 7 4 3 3 4 3 3 3 2
4 4 4 4 4 4 5 4 2 2 1 0 1 3 3 4 1 1 1 2 3 3 3 3 4 5 5 6 9 8 8 7 8 6 5 6 6 5 4 4 4 4 3 3 3
4 5 5 5 4 4 4 1 2 3 2 4 4 4 4 2 1 2 2 3 3 4 6 4 6 7 6 5 5 6 7 7 6 5 6 6 6 5 4 4 4 4 4 3 3
5 5 4 4 4 4 3 4 6 5 7 4 4 4 3 3 4 2 1 4 5 6 5 5 7 5 5 5 6 6 7 7 6 5 6 6 6 5 4 4 4 4 3 3 3
5 5 5 5 5 3 3 5 3 4 6 5 3 4 4 3 4 3 2 4 5 6 6 7 6 5 5 6 7 7 7 7 7 6 6 6 7 6 5 4 3 3 3 3 3
5 5 5 5 4 3 3 3 3 2 7 6 5 4 4 4 5 2 2 3 5 6 6 6 5 6 6 7 6 8 6 6 7 7 9 6 10 7 6 5 4 4 3 3 3
5 4 5 6 3 4 4 3 3 2 12 5 4 2 4 5 4 4 2 4 5 5 5 6 6 6 7 7 5 7 5 6 6 7 8 8 9 8 6 6 5 4 3 3 2
5 5 5 3 2 2 2 2 3 8 11 7 4 5 6 5 4 3 3 3 3 5 5 5 4 5 6 5 5 5 6 6 6 7 10 8 9 9 7 6 5 4 3 3 3
5 5 5 3 3 1 1 3 8 10 6 7 6 5 5 6 6 5 5 6 7 8 8 6 6 5 4 6 5 6 7 11 11 11 11 8 9 8 6 5 5 4 4 3 3
6 6 4 2 1 1 2 6 10 8 7 5 6 6 7 6 5 5 6 7 5 6 7 9 10 6 5 6 7 7 7 10 13 13 11 8 10 8 5 4 4 3 3 3 3
7 2 2 0 1 1 4 9 8 7 6 7 7 7 7 6 6 6 6 7 6 5 8 8 9 5 5 5 5 7 8 6 9 8 10 9 8 6 5 5 4 4 3 3 3
6 3 2 1 -0 2 6 9 7 6 6 6 8 7 8 7 7 7 7 5 6 5 4 6 9 6 5 5 5 6 5 9 9 13 13 10 9 9 7 6 5 4 4 3 3
5 5 3 1 2 4 8 7 6 5 6 7 7 7 7 7 7 7 7 6 5 5 4 5 7 8 6 7 7 7 8 7 8 9 12 12 10 6 6 5 5 4 3 3 3
4 6 3 2 6 6 7 7 10 7 5 6 6 7 7 6 7 7 7 6 4 4 6 5 6 9 8 5 5 6 7 7 10 11 9 10 10 5 5 4 4 4 3 3 2
6 5 3 3 8 7 5 7 7 7 7 7 7 6 5 6 8 6 6 4 5 5 6 5 7 11 9 7 6 7 6 6 6 7 10 12 10 5 4 4 4 4 3 3 2
6 8 5 5 5 6 7 7 7 6 7 6 7 6 6 6 5 7 6 5 4 4 4 4 8 9 11 9 7 8 7 7 7 10 9 9 8 6 5 5 4 4 3 3 3
6 7 7 8 7 6 7 7 8 8 6 5 7 7 7 8 7 7 6 5 5 4 4 5 9 8 7 7 7 7 8 7 8 8 9 8 8 6 5 5 4 3 3 3 3
8 8 6 8 7 8 9 8 8 8 7 7 7 6 6 8 7 8 7 7 6 5 5 5 9 8 9 7 7 8 7 7 7 7 7 7 8 5 4 4 4 4 3 3 3
5 6 8 9 9 9 9 8 8 7 7 6 7 7 7 6 6 6 5 5 5 7 7 8 9 10 12 8 8 10 8 7 7 6 7 8 6 5 5 4 4 4 3 3 3